Portada
METAR-TAF:

METAR-TAF

Aeropuertos :

University-Oxford_Airport

Oxford, Misisipi, Estados Unidos

latitud: 34-23-04N, longitud: 089-32-08W, altitud: 138 m

Observación

El informe se hizo hace 18 minutos, a las 01:35 UTC
Viento 3 kt del sur-sureste
Temperatura 19°C
Humedad 100%
Presión 1015 hPa
Visibilidad: 16.1 km
Cielo despejado

METAR: KUOX 290135Z AUTO 16003KT 10SM CLR 19/19 A2998 RMK AO2

Hora: 20:53 (01:53 UTC)


TAF: falta

Observaciones y pronósticos meteorológicos de más de 4000 aeropuertos (mensajes METAR y TAF).

Los puntos amarillos y rojos representan las estaciones disponibles.

Ponga el ratón en el punto deseado para ver el nombre de la estación.

Haga clic para ver las observaciones y los pronósticos meteorológicos.

Para cambiar el mapa : haga clic en los botones verdes con una cruz de color negro para hacer un zoom, en el botón verde con un guión para alejar o en las flechas verdes para mapas adyacentes.


METAR-TAF: